Location: La Chapelle
(48.3135°N, 1.3085°W)
Time: 08:43:59
(UTC+00:00)

Cosmos 44 Rocket - Pass Details

Date: 03 March 2021
Orbit: 636 x 754 km, 65.1° (Epoch: 13 April)

Event Time Altitude Azimuth Distance (km) Brightness Sun altitude
Rises 18:18:46 0° 322° (NW) 3,208 7.2 -5.2°
Reaches altitude 10° 18:21:11 10° 324° (NW) 2,285 6.4 -5.5°
Maximum altitude 18:26:26 77° 50° (NE) 778 3.5 -6.4°
Drops below altitude 10° 18:31:39 10° 137° (SE) 2,260 5.6 -7.3°
Sets 18:34:01 0° 139° (SE) 3,171 6.3 -7.7°
